Regional Weather Roundup
Issued by NWS Kansas City/Pleasant Hill, MO

Home | Current Version | Previous Version | Graphics & Text | Print | Product List | Glossary Off
Versions: 1 2 3 4 5 6 7 8 9 10 11 12 13 14 15 16 17 18 19 20 21 22 23 24 25 26 27

000
ASUS43 KEAX 192110
RWREAX

WEATHER ROUNDUP FOR EASTERN KANSAS AND NORTHWEST MISSOURI
NATIONAL WEATHER SERVICE KANSAS CITY/PLEASANT HILL MO
400 PM CDT SAT AUG 19 2017

KSZ040-057-103>105-MOZ028-029-037-043-192200-
...KANSAS CITY METROPOLITAN AREA...

CITY           SKY/WX    TMP DP  RH WIND       PRES   REMARKS
K.C. INTL      MOSUNNY   89  68  49 S5        29.94F HX  93
K.C. DOWNTOWN  SUNNY     94  61  33 CALM      29.92F HX  94
LEES SUMMIT    SUNNY     90  68  48 E6        29.95F HX  94
OLATHE - IXD   SUNNY     91  68  46 S5        29.95F HX  95
OLATHE - OJC   SUNNY     89  65  44 S6        29.95S HX  91
LAWRENCE       SUNNY     91  68  46 E7        29.92F HX  95

$$

MOZ001>008-011>017-020>025-030>033-038>040-044>046-053-054-192200-
...NORTHERN AND CENTRAL MISSOURI...

CITY           SKY/WX    TMP DP  RH WIND       PRES   REMARKS
ST. JOSEPH     SUNNY     90  69  50 S7        29.92F HX  94
WARRENSBURG    SUNNY     88  66  48 CALM      29.95S HX  90
WHITEMAN AFB   SUNNY     89  65  44 N3        29.94F HX  91
CLINTON        SUNNY     90  72  55 S3        29.95F HX  96
SEDALIA        SUNNY     92  70  48 VRB3      29.96F HX  97
WARSAW         NOT AVBL
CHILLICOTHE      N/A     93  56  28 VRB5      29.93F HX  91
KIRKSVILLE     SUNNY     91  51  25 W6        29.93F

$$

MOZ041-047>049-056>058-063>065-088>090-097-192200-
...EASTERN AND SOUTHERN MISSOURI...

CITY           SKY/WX    TMP DP  RH WIND       PRES   REMARKS
ST. LOUIS INTL MOSUNNY   88  66  48 N8        29.93F HX  90
SPIRIT OF STL  MOSUNNY   91  70  49 SW7       29.91F HX  96
COLUMBIA       SUNNY     90  64  42 W9        29.95S HX  91
JEFFERSON CITY SUNNY     90  74  59 W5        29.92F HX  99
ROLLA          SUNNY     89  69  51 SW7       29.97F HX  93
OSAGE BEACH    SUNNY     89  73  59 VRB3      29.96F HX  97
SPRINGFIELD    SUNNY     91  76  61 W6        29.97F HX 103
BRANSON        MOSUNNY   91  73  55 NW5       29.99F HX 100
JOPLIN         SUNNY     93  75  55 SW3       29.94F HX 104
WEST PLAINS    SUNNY     94  65  38 W7        29.98F HX  96

$$

IAZ060-094-KSZ022-034>040-054-083-096-NEZ052-066-093-192200-
...KANSAS...SOUTHEAST NEBRASKA AND IOWA...

CITY           SKY/WX    TMP DP  RH WIND       PRES   REMARKS
TOPEKA         SUNNY     93  69  45 SE10      29.91F HX  98
MANHATTAN      SUNNY     93  73  52 SE7       29.89F HX 102
EMPORIA        CLOUDY    90  75  61 SE13      29.92F HX 100
CHANUTE        CLOUDY    92  74  55 S5        29.93F HX 101
WICHITA        CLOUDY    98  73  44 SE22      29.88F HX 108
OMAHA          SUNNY     87  59  38 S8        29.91F
LINCOLN        SUNNY     85  64  49 SE13      29.91F
FALLS CITY     SUNNY     88  65  46 E9        29.91F HX  90
LAMONI         SUNNY     89  55  31 NW7       29.93F
DES MOINES     MOSUNNY   85  62  46 E5        29.92F

$$





USA.gov is the U.S. government's official web portal to all federal, state and local government web resources and services.